Location: *
(50.5492°N, 7.7469°E)
Time: 14:09:28
(UTC+00:00)

Cosmos 1908 - Pass Details

Date: 21 October 2019
Orbit: 511 x 532 km, 82.5° (Epoch: 17 November)

Event Time Altitude Azimuth Distance (km) Brightness Sun altitude
Rises 16:57:01 0° 163° (SSE) 2,661 6.7 -5.7°
Reaches altitude 10° 16:59:20 10° 152° (SSE) 1,774 5.7 -6.0°
Maximum altitude 17:02:45 30° 91° (E) 977 4.1 -6.6°
Drops below altitude 10° 17:06:10 10° 30° (NNE) 1,778 5.6 -7.1°
Sets 17:08:29 0° 19° (NNE) 2,669 6.5 -7.5°
